Flag for Germany Weather past 2 weeks in Velbert, North Rhine-Westphalia, Germany

Now
60 °F

Clear.


Feels Like: 60 °F
Forecast: 64 / 85 °F
Wind: 2 mph from Northeast

Location: Essen

Current Time: Aug 2, 2015 at 4:31:35 AM

Latest Report: Aug 2, 2015 at 4:00 AM


Visibility: 16 mi

Pressure: 30.09 "Hg

Humidity: 68%

Dew point: 49 °F

Location of VelbertLocation

Historic Weather in Velbert — Graph

°F

Velbert temperature yesterday

Maximum temperature yesterday: 74 °F (at 4:00 PM)
Minimum temperature yesterday: 52 °F (at 7:00 AM)
Average temperature yesterday: 63 °F

Past Weeks' High & Low Weather Summary

 TemperatureHumidityPressure
High79 °F (Jul 24, 3:00 PM)100% (Jul 19, 8:00 AM)30.16 "Hg (Jul 19, 8:00 AM)
Low47 °F (Jul 31, 5:00 AM)38% (Jul 31, 5:00 PM)29.50 "Hg (Jul 25, 7:00 AM)
Average63 °F73%29.89 "Hg
* Reported Jul 18 2:00 AM — Aug 2 2:00 AM, Velbert, Weather by CustomWeather, © 2015

Note: Actual official high and low records may vary slightly from our data, if they occured in-between our weather recording intervals... More about our weather records

Advertising

Velbert weather history for previous 24 hours

 ConditionsComfort  
Time TempWeatherWind HumidityBarometerVisibility
2:00 AM
Sun, Aug 2
61 °FClear.2 mph67%30.09 "Hg19 mi
1:00 AM61 °FClear.2 mph67%30.09 "Hg22 mi
11:00 PM
Sat, Aug 1
63 °FOvercast.3 mph61%30.06 "Hg22 mi
10:00 PM65 °FOvercast.3 mph55%30.04 "Hg28 mi
8:00 PM72 °FPartly sunny.2 mph43%29.99 "Hg31 mi
7:00 PM73 °FOvercast.3 mph41%29.98 "Hg25 mi
6:00 PM73 °FPartly sunny.2 mph42%29.97 "Hg34 mi
5:00 PM73 °FPartly sunny.3 mph38%29.97 "Hg31 mi
4:00 PM74 °FScattered clouds.2 mph40%29.97 "Hg28 mi
3:00 PM73 °FOvercast.1 mph39%29.96 "Hg31 mi
2:00 PM72 °FSunny.2 mph38%29.97 "Hg31 mi
1:00 PM71 °FSunny.2 mph38%29.98 "Hg22 mi
12:00 PM69 °FSunny.3 mph47%29.98 "Hg19 mi
11:00 AM66 °FPassing clouds.3 mph51%29.99 "Hg22 mi
10:00 AM64 °FPartly sunny.1 mph57%29.99 "Hg28 mi
9:00 AM60 °FScattered clouds.1 mph65%29.99 "Hg17 mi
8:00 AM56 °FScattered clouds.1 mph69%29.99 "Hg28 mi
7:00 AM52 °FPartly sunny.2 mph78%29.99 "Hg25 mi
6:00 AM52 °FOvercast.2 mph75%29.99 "Hg25 mi
5:00 AM53 °FOvercast.2 mph72%30.00 "Hg28 mi
4:00 AM53 °FOvercast.2 mph72%30.01 "Hg28 mi
Weather by CustomWeather, © 2015

See weather overviewHow to use our weather pages